Hourly Weather Lugi Apushkiny

Today, 20 June, Sunday

Time Temperature Precipitation Wind Pressure Humidity
00:00 +17°C° 0 mm 2 mps 756 mmHg 85%
01:00 +17°C° 0 mm 2 mps 756 mmHg 86%
02:00 +16°C° 0 mm 2 mps 756 mmHg 87%
03:00 +16°C° 0 mm 2 mps 756 mmHg 88%
04:00 +16°C° 0 mm 2 mps 755 mmHg 88%
05:00 +16°C° 0 mm 2 mps 755 mmHg 88%
06:00 +17°C° 0 mm 2 mps 755 mmHg 88%
07:00 +19°C° 0 mm 3 mps 755 mmHg 82%
08:00 +20°C° 0 mm 3 mps 755 mmHg 77%
09:00 +22°C° 0 mm 4 mps 755 mmHg 71%
10:00 +23°C° 0 mm 4 mps 755 mmHg 67%
11:00 +25°C° 0 mm 4 mps 755 mmHg 63%
12:00 +26°C° 0 mm 4 mps 755 mmHg 60%
13:00 +26°C° 0 mm 4 mps 755 mmHg 59%
14:00 +27°C° 0 mm 4 mps 754 mmHg 58%
15:00 +27°C° 0 mm 4 mps 754 mmHg 57%
16:00 +27°C° 0 mm 4 mps 754 mmHg 61%
17:00 +27°C° 0 mm 3 mps 754 mmHg 65%
18:00 +26°C° 0 mm 3 mps 754 mmHg 69%
19:00 +25°C° 0 mm 3 mps 753 mmHg 74%
20:00 +22°C° 0 mm 3 mps 753 mmHg 80%
21:00 +21°C° 0 mm 3 mps 753 mmHg 85%
22:00 +20°C° 0 mm 3 mps 753 mmHg 86%
23:00 +19°C° 0 mm 3 mps 753 mmHg 86%

Tomorrow, 21 June, Monday

Time Temperature Precipitation Wind Pressure Humidity
00:00 +19°C° 0 mm 3 mps 753 mmHg 87%
01:00 +18°C° 0 mm 3 mps 753 mmHg 87%
02:00 +18°C° 0 mm 3 mps 753 mmHg 88%
03:00 +18°C° 0 mm 3 mps 753 mmHg 89%
04:00 +18°C° 0 mm 3 mps 753 mmHg 88%
05:00 +18°C° 0 mm 3 mps 753 mmHg 87%
06:00 +19°C° 0 mm 3 mps 753 mmHg 86%
07:00 +20°C° 0 mm 4 mps 753 mmHg 81%
08:00 +22°C° 0 mm 4 mps 753 mmHg 77%
09:00 +25°C° 0 mm 5 mps 753 mmHg 72%
10:00 +26°C° 0 mm 5 mps 753 mmHg 69%
11:00 +27°C° 0 mm 5 mps 753 mmHg 66%
12:00 +28°C° 0 mm 5 mps 753 mmHg 62%
13:00 +28°C° 0 mm 5 mps 753 mmHg 64%
14:00 +28°C° 0 mm 4 mps 753 mmHg 66%
15:00 +28°C° 0 mm 4 mps 753 mmHg 67%
16:00 +28°C° 0 mm 4 mps 752 mmHg 70%
17:00 +28°C° 0 mm 3 mps 752 mmHg 72%
18:00 +28°C° 0 mm 3 mps 752 mmHg 75%
19:00 +26°C° 0 mm 3 mps 752 mmHg 79%
20:00 +25°C° 0 mm 3 mps 752 mmHg 83%
21:00 +24°C° 0 mm 3 mps 753 mmHg 88%
22:00 +22°C° 0 mm 3 mps 753 mmHg 88%
23:00 +21°C° 0 mm 3 mps 753 mmHg 89%

Day after tomorrow, 22 June, Tuesday

Time Temperature Precipitation Wind Pressure Humidity
00:00 +21°C° 0 mm 3 mps 753 mmHg 90%
01:00 +20°C° 0 mm 3 mps 753 mmHg 91%
02:00 +20°C° 0 mm 3 mps 753 mmHg 91%
03:00 +19°C° 0 mm 3 mps 753 mmHg 92%
04:00 +20°C° 0 mm 3 mps 753 mmHg 90%
05:00 +20°C° 0 mm 3 mps 753 mmHg 89%
06:00 +20°C° 0 mm 4 mps 753 mmHg 87%
07:00 +22°C° 0 mm 4 mps 753 mmHg 82%
08:00 +25°C° 0 mm 4 mps 753 mmHg 76%
09:00 +27°C° 0 mm 5 mps 753 mmHg 70%
10:00 +28°C° 0 mm 5 mps 753 mmHg 67%
11:00 +29°C° 0 mm 5 mps 753 mmHg 64%
12:00 +30°C° 0 mm 5 mps 753 mmHg 61%
13:00 +30°C° 0 mm 5 mps 753 mmHg 61%
14:00 +32°C° 0 mm 5 mps 753 mmHg 60%
15:00 +32°C° 0 mm 5 mps 753 mmHg 60%
16:00 +32°C° 0 mm 4 mps 753 mmHg 64%
17:00 +30°C° 0 mm 4 mps 753 mmHg 67%
18:00 +30°C° 0 mm 4 mps 753 mmHg 70%
19:00 +28°C° 0 mm 4 mps 753 mmHg 75%
20:00 +27°C° 0 mm 3 mps 753 mmHg 80%
21:00 +25°C° 0 mm 3 mps 753 mmHg 85%
22:00 +24°C° 0 mm 3 mps 753 mmHg 85%
23:00 +24°C° 0 mm 3 mps 753 mmHg 84%

23 June, Wednesday

Time Temperature Precipitation Wind Pressure Humidity
00:00 +22°C° 0 mm 3 mps 753 mmHg 84%
01:00 +22°C° 0 mm 3 mps 753 mmHg 83%
02:00 +21°C° 0 mm 3 mps 753 mmHg 83%
03:00 +21°C° 0 mm 3 mps 753 mmHg 83%
04:00 +21°C° 0 mm 3 mps 753 mmHg 84%
05:00 +21°C° 0 mm 3 mps 753 mmHg 85%
06:00 +21°C° 0 mm 3 mps 753 mmHg 86%
07:00 +23°C° 0 mm 4 mps 753 mmHg 81%
08:00 +26°C° 0 mm 4 mps 753 mmHg 76%
09:00 +28°C° 0 mm 5 mps 753 mmHg 71%
10:00 +29°C° 0 mm 5 mps 753 mmHg 67%
11:00 +30°C° 0 mm 5 mps 753 mmHg 64%
12:00 +32°C° 0 mm 5 mps 753 mmHg 60%
13:00 +32°C° 0 mm 4 mps 753 mmHg 59%
14:00 +32°C° 0 mm 4 mps 753 mmHg 58%
15:00 +32°C° 0 mm 4 mps 753 mmHg 57%
16:00 +31°C° 0 mm 3 mps 753 mmHg 61%
17:00 +31°C° 0 mm 3 mps 753 mmHg 64%
18:00 +31°C° 0 mm 2 mps 753 mmHg 68%
19:00 +29°C° 0 mm 2 mps 753 mmHg 72%
20:00 +27°C° 0 mm 2 mps 753 mmHg 76%
21:00 +26°C° 0 mm 2 mps 753 mmHg 80%
22:00 +25°C° 0 mm 2 mps 753 mmHg 81%
23:00 +25°C° 0 mm 1 mps 753 mmHg 83%

24 June, Thursday

Time Temperature Precipitation Wind Pressure Humidity
00:00 +24°C° 0 mm 1 mps 753 mmHg 84%
01:00 +24°C° 0 mm 1 mps 753 mmHg 84%
02:00 +24°C° 0 mm 1 mps 753 mmHg 84%
03:00 +23°C° 0 mm 1 mps 753 mmHg 85%
04:00 +24°C° 0 mm 1 mps 753 mmHg 84%
05:00 +24°C° 0 mm 2 mps 753 mmHg 84%
06:00 +24°C° 0 mm 2 mps 753 mmHg 84%
07:00 +26°C° 0 mm 2 mps 753 mmHg 79%
08:00 +27°C° 0 mm 2 mps 753 mmHg 74%
09:00 +29°C° 0 mm 2 mps 753 mmHg 69%
10:00 +30°C° 0 mm 2 mps 753 mmHg 65%
11:00 +31°C° 0 mm 2 mps 753 mmHg 61%
12:00 +32°C° 0 mm 2 mps 753 mmHg 57%
13:00 +32°C° 0 mm 1 mps 753 mmHg 55%
14:00 +33°C° 0 mm 1 mps 753 mmHg 53%
15:00 +33°C° 0 mm 1 mps 753 mmHg 51%
16:00 +33°C° 0 mm 1 mps 753 mmHg 54%
17:00 +33°C° 0 mm 1 mps 753 mmHg 58%
18:00 +33°C° 0 mm 1 mps 753 mmHg 61%
19:00 +31°C° 0 mm 1 mps 753 mmHg 65%
20:00 +29°C° 0 mm 1 mps 753 mmHg 69%
21:00 +27°C° 0 mm 1 mps 753 mmHg 74%
22:00 +26°C° 0 mm 1 mps 752 mmHg 76%
23:00 +26°C° 0 mm 1 mps 752 mmHg 78%

25 June, Friday

Time Temperature Precipitation Wind Pressure Humidity
00:00 +25°C° 0 mm 1 mps 752 mmHg 81%
01:00 +24°C° 0.1 mm 1 mps 752 mmHg 82%
02:00 +22°C° 0.1 mm 0 mps 753 mmHg 83%
03:00 +22°C° 0.1 mm 0 mps 753 mmHg 84%
04:00 +22°C° 0 mm 0 mps 753 mmHg 84%
05:00 +25°C° 0 mm 1 mps 753 mmHg 83%
06:00 +25°C° 0 mm 1 mps 753 mmHg 83%
07:00 +26°C° 0 mm 1 mps 753 mmHg 78%
08:00 +28°C° 0 mm 1 mps 753 mmHg 73%
09:00 +29°C° 0 mm 2 mps 753 mmHg 69%
10:00 +30°C° 0 mm 2 mps 753 mmHg 65%
11:00 +31°C° 0 mm 2 mps 753 mmHg 62%
12:00 +31°C° 0 mm 2 mps 753 mmHg 58%
13:00 +32°C° 0.1 mm 1 mps 753 mmHg 56%
14:00 +32°C° 0.1 mm 1 mps 753 mmHg 55%
15:00 +32°C° 0.1 mm 1 mps 752 mmHg 53%
16:00 +32°C° 0 mm 1 mps 752 mmHg 56%
17:00 +32°C° 0 mm 2 mps 752 mmHg 60%
18:00 +31°C° 0 mm 2 mps 751 mmHg 64%
19:00 +29°C° 0.2 mm 2 mps 751 mmHg 68%
20:00 +27°C° 0.2 mm 2 mps 751 mmHg 73%
21:00 +25°C° 0.2 mm 3 mps 751 mmHg 78%
22:00 +24°C° 0.3 mm 2 mps 751 mmHg 76%
23:00 +24°C° 0.3 mm 2 mps 751 mmHg 75%
Show more

We Need Your Consent

Meteoprog and our Service Providers may store and access personal data such as cookies, device identifiers or other similar technologies on your device and process such data to personalise content and ads, as well as provide social media features and to analyse the traffic.

  • Store and/or access information on your device

    Cookies, device identifiers or other information can be stored or accessed on your device for the purposes indicated above.

  • Personalised ads and content, ad and content measurement, audience insights, and products development

    Ads and content can be personalised based on a profile. More data can be added to better personalise ads and content. Ad and content performance can be measured. Insights about the audience who saw the ads and content can be derived. Such data can be used to develop or improve user’s experience, systems and software.

By clicking ‘I Agree’ you will allow the use of indicated cookies, device identifiers, web beacons or other similar technologies. Your settings can be changed in the browser on your device.

For certain purposes, legitimate interests may be relied on, rather than consent. You can read more about this in our Privacy and Cookie Policy.